Location: Fort Worth, Tx
(32.7431°N, 97.3695°W)
Time: 13:59:39
(UTC-05:00)

A-11 Canister half - All Passes

Search period start: 30 January 2023 00:00
Search period end: 09 February 2023 00:00
Orbit: 1514 x 1686 km, 47.2° (Epoch: 30 January)

Date Brightness Start Highest point End Pass type
(mag) Time Alt. Az. Time Alt. Az. Time Alt. Az.
30 Jan - 10:41:37 10° S 10:48:57 24° SE 10:56:05 10° ENE daylight
30 Jan - 12:43:13 10° SW 12:53:04 86° SE 13:02:34 10° NE daylight
30 Jan - 14:49:52 10° W 14:58:48 41° NNW 15:07:31 10° NE daylight
30 Jan - 16:57:38 10° NW 17:05:57 34° N 17:14:07 10° ENE daylight
30 Jan - 19:03:15 10° NW 19:12:27 61° NNE 19:21:34 10° ESE daylight
30 Jan - 21:08:32 10° WNW 21:17:06 45° SW 21:25:44 10° SSE visible
31 Jan - 10:19:06 10° S 10:26:04 22° SE 10:32:53 10° E daylight
31 Jan - 12:20:16 10° SW 12:30:07 82° SE 12:39:38 10° NE daylight
31 Jan - 14:26:44 10° W 14:35:46 43° NNW 14:44:34 10° NE daylight
31 Jan - 16:34:33 10° WNW 16:42:53 33° N 16:51:03 10° ENE daylight
31 Jan - 18:40:19 10° NW 18:49:29 58° NNE 18:58:33 10° ESE daylight
31 Jan - 20:45:31 10° WNW 20:54:13 48° SW 21:02:59 10° SSE visible
01 Feb - 09:56:37 10° SSE 10:03:12 20° SE 10:09:38 10° E daylight
01 Feb - 11:57:19 10° SW 12:07:11 77° SE 12:16:42 10° NE daylight
01 Feb - 14:03:36 10° W 14:12:44 44° NNW 14:21:37 10° NE daylight
01 Feb - 16:11:29 10° WNW 16:19:49 33° N 16:27:58 10° ENE daylight
01 Feb - 18:17:22 10° NW 18:26:30 56° NNE 18:35:31 10° ESE daylight
01 Feb - 20:22:31 10° WNW 20:31:21 52° SW 20:40:12 10° SSE visible
02 Feb - 09:34:12 10° SSE 09:40:19 18° SE 09:46:18 10° E daylight
02 Feb - 11:34:24 10° SW 11:44:15 73° SE 11:53:45 10° NE daylight
02 Feb - 13:40:28 10° W 13:49:43 46° NNW 13:58:40 10° NE daylight
02 Feb - 15:48:24 10° WNW 15:56:45 33° N 16:04:55 10° ENE daylight
02 Feb - 17:54:25 10° NW 18:03:31 53° NNE 18:12:29 10° ESE daylight
02 Feb - 19:59:31 10° WNW 20:08:27 56° SW 20:17:24 10° SSE visible
02 Feb - 22:11:01 10° WSW 22:11:56 10° WSW 22:12:52 10° SW visible
03 Feb - 09:11:52 10° SSE 09:17:27 16° SE 09:22:55 10° E daylight
03 Feb - 11:11:29 10° SW 11:21:19 69° SE 11:30:48 10° ENE daylight
03 Feb - 13:17:21 10° W 13:26:41 48° NNW 13:35:44 10° NE daylight
03 Feb - 15:25:18 10° WNW 15:33:41 33° N 15:41:50 10° ENE daylight
03 Feb - 17:31:28 10° NW 17:40:32 51° NNE 17:49:26 10° E daylight
03 Feb - 19:36:32 10° WNW 19:45:34 60° SW 19:54:35 10° SSE visible
03 Feb - 21:46:13 10° WSW 21:49:06 12° WSW 21:51:59 10° SW visible
04 Feb - 08:49:39 10° SSE 08:54:35 15° ESE 08:59:25 10° E daylight
04 Feb - 10:48:35 10° SW 10:58:23 65° SE 11:07:51 10° ENE daylight
04 Feb - 12:54:14 10° W 13:03:40 50° NNW 13:12:48 10° NE daylight
04 Feb - 15:02:12 10° WNW 15:10:37 33° N 15:18:48 10° ENE daylight
04 Feb - 17:08:30 10° NW 17:17:32 49° NNE 17:26:23 10° E daylight
04 Feb - 19:13:34 10° WNW 19:22:41 64° SW 19:31:45 10° SE visible
04 Feb - 21:22:22 10° W 21:26:16 13° WSW 21:30:11 10° SSW visible
05 Feb - 08:27:35 10° SSE 08:31:42 13° ESE 08:35:46 10° E daylight
05 Feb - 10:25:42 10° SSW 10:35:27 61° SE 10:44:53 10° ENE daylight
05 Feb - 12:31:07 10° WSW 12:40:39 52° NNW 12:49:52 10° NE daylight
05 Feb - 14:39:05 10° WNW 14:47:32 33° N 14:55:45 10° ENE daylight
05 Feb - 16:45:31 10° NW 16:54:31 47° NNE 17:03:19 10° E daylight
05 Feb - 18:50:35 10° WNW 18:59:47 68° SW 19:08:54 10° SE daylight
05 Feb - 20:58:46 10° W 21:03:26 15° WSW 21:08:06 10° SSW visible
06 Feb - 08:05:48 10° SE 08:08:50 12° ESE 08:11:50 10° ESE daylight
06 Feb - 10:02:50 10° SSW 10:12:31 57° SE 10:21:54 10° ENE daylight
06 Feb - 12:08:00 10° WSW 12:17:38 54° NNW 12:26:56 10° NE daylight
06 Feb - 14:15:58 10° WNW 14:24:27 33° N 14:32:43 10° ENE daylight
06 Feb - 16:22:32 10° NW 16:31:30 45° NNE 16:40:16 10° E daylight
06 Feb - 18:27:37 10° NW 18:36:53 73° SW 18:46:03 10° SE daylight
06 Feb - 20:35:18 10° W 20:40:35 17° SW 20:45:53 10° SSW visible
07 Feb - 07:45:00 10° SE 07:45:58 10° ESE 07:46:55 10° ESE visible
07 Feb - 09:39:58 10° SSW 09:49:36 53° SE 09:58:55 10° ENE daylight
07 Feb - 11:44:55 10° WSW 11:54:37 57° NNW 12:04:00 10° NE daylight
07 Feb - 13:52:50 10° WNW 14:01:22 34° N 14:09:41 10° ENE daylight
07 Feb - 15:59:33 10° NW 16:08:29 44° NNE 16:17:12 10° E daylight
07 Feb - 18:04:39 10° NW 18:13:59 77° SW 18:23:10 10° SE daylight
07 Feb - 20:11:56 10° W 20:17:44 19° SW 20:23:33 10° SSW visible
08 Feb - 09:17:09 10° SSW 09:26:41 50° SE 09:35:55 10° ENE daylight
08 Feb - 11:21:49 10° WSW 11:31:37 60° NNW 11:41:05 10° NE daylight
08 Feb - 13:29:41 10° WNW 13:38:18 34° N 13:46:40 10° ENE daylight
08 Feb - 15:36:33 10° NW 15:45:27 42° NNE 15:54:08 10° E daylight
08 Feb - 17:41:41 10° NW 17:51:04 82° SW 18:00:17 10° SE daylight
08 Feb - 19:48:38 10° W 19:54:53 20° SW 20:01:10 10° S visible
